Weather History for Hulett, WY

Change the Weather History Date:

Monday, January 6, 2014

  Actual Average (KEFC) Record (KEFC)
Temperature  
Mean Temperature 8 °F -  
Max Temperature 30 °F 32 °F 65 °F (1954)
Min Temperature -14 °F 7 °F -24 °F (1968)
Degree Days  
Heating Degree Days 57    
Moisture  
Dew Point -5 °F    
Average Humidity 56    
Maximum Humidity 77    
Minimum Humidity 47    
Precipitation  
Precipitation 0.00 in - - ()
Sea Level Pressure  
Sea Level Pressure 30.10 in    
Wind  
Wind Speed 10 mph (SW)    
Max Wind Speed 17 mph    
Max Gust Speed 24 mph    
Visibility 10 miles    
Events      
Averages and records for this station are not official NWS values.
T = Trace of Precipitation, MM = Missing Value Source: NWS Daily Summary

Daily Weather History Graph

Daily Weather History Graph

Search for Another Location

Airport:

Trip Planner

Search our weather history database for the weather conditions in past years. The results will help you decide how hot, cold, wet, or windy it might be!

Date:

Astronomy

Jan. 06, 2014 Rise Set
Actual Time 7:35 AM MST 4:33 PM MST
Civil Twilight 7:01 AM MST 5:06 PM MST
Nautical Twilight 6:25 AM MST 5:43 PM MST
Astronomical Twilight 5:49 AM MST 6:18 PM MST
Moon 10:35 AM MST (1/6) 11:27 PM MST (1/6)
Length of Visible Light 10h 04m
Length of Day
8h 58m
Waxing Crescent, 35% of the Moon is Illuminated
Jan 6
Waxing Crescent
Jan 7
First Quarter
Jan 15
Full
Jan 23
Last Quarter
Jan 30
New

Hourly Weather History & Observations

Time (MST) Temp. Windchill Dew Point Humidity Pressure Visibility Wind Dir Wind Speed Gust Speed Precip Events Conditions
12:15 AM -11.2 °F -30.1 °F -22.0 °F 59% 30.27 in 10.0 mi SW 10.4 mph - N/A   Clear
12:35 AM -11.2 °F -30.1 °F -22.0 °F 59% 30.26 in 10.0 mi SW 10.4 mph - N/A   Clear
12:55 AM -13.0 °F -30.0 °F -22.0 °F 64% 30.26 in 10.0 mi SSW 8.1 mph - N/A   Clear
1:15 AM -13.0 °F -27.0 °F -22.0 °F 64% 30.25 in 10.0 mi SW 5.8 mph - N/A   Clear
1:35 AM -11.2 °F -30.1 °F -22.0 °F 59% 30.23 in 10.0 mi SW 10.4 mph - N/A   Clear
1:55 AM -11.2 °F -30.1 °F -22.0 °F 59% 30.24 in 10.0 mi SW 10.4 mph - N/A   Clear
2:15 AM -9.4 °F - -20.2 °F 59% 30.23 in 10.0 mi North - - N/A   Clear
2:35 AM -14.8 °F - -23.8 °F 64% 30.25 in 10.0 mi Calm Calm - N/A   Clear
2:55 AM -13.0 °F -28.6 °F -22.0 °F 64% 30.24 in 10.0 mi SSW 6.9 mph - N/A   Clear
3:15 AM -11.2 °F -27.8 °F -20.2 °F 64% 30.24 in 10.0 mi South 8.1 mph - N/A   Clear
3:35 AM -11.2 °F -26.4 °F -20.2 °F 64% 30.24 in 10.0 mi SSW 6.9 mph - N/A   Clear
3:55 AM -9.4 °F -22.7 °F -18.4 °F 65% 30.24 in 10.0 mi SW 5.8 mph - N/A   Clear
4:15 AM -9.4 °F -25.6 °F -18.4 °F 65% 30.24 in 10.0 mi SSW 8.1 mph - N/A   Clear
4:35 AM -9.4 °F -24.3 °F -18.4 °F 65% 30.24 in 10.0 mi South 6.9 mph - N/A   Clear
4:55 AM -9.4 °F -26.8 °F -18.4 °F 65% 30.23 in 10.0 mi SW 9.2 mph - N/A   Clear
5:15 AM -9.4 °F -27.9 °F -18.4 °F 65% 30.23 in 10.0 mi SSW 10.4 mph - N/A   Clear
5:35 AM -9.4 °F -25.6 °F -18.4 °F 65% 30.23 in 10.0 mi SSW 8.1 mph - N/A   Clear
5:55 AM -9.4 °F -25.6 °F -18.4 °F 65% 30.23 in 10.0 mi SSW 8.1 mph - N/A   Clear
6:15 AM -11.2 °F -24.8 °F -20.2 °F 64% 30.22 in 10.0 mi SSW 5.8 mph - N/A   Clear
6:35 AM -13.0 °F -31.3 °F -20.2 °F 70% 30.21 in 10.0 mi South 9.2 mph - N/A   Clear
6:55 AM -13.0 °F -30.0 °F -20.2 °F 70% 30.21 in 10.0 mi SSW 8.1 mph - N/A   Clear
7:15 AM -13.0 °F -31.3 °F -18.4 °F 77% 30.20 in 10.0 mi South 9.2 mph - N/A   Clear
7:35 AM -11.2 °F -26.4 °F -18.4 °F 70% 30.21 in 10.0 mi SW 6.9 mph - N/A   Clear
7:55 AM -11.2 °F -30.1 °F -18.4 °F 70% 30.21 in 10.0 mi SSW 10.4 mph - N/A   Clear
8:15 AM -9.4 °F -26.8 °F -18.4 °F 65% 30.21 in 10.0 mi SW 9.2 mph - N/A   Clear
8:35 AM -5.8 °F - -16.6 °F 60% 30.21 in 10.0 mi North - - N/A   Clear
8:55 AM -4.0 °F - -16.6 °F 55% 30.21 in 10.0 mi North - - N/A   Clear
9:15 AM -2.2 °F - -14.8 °F 55% 30.20 in 10.0 mi North - - N/A   Clear
9:35 AM -0.4 °F - -14.8 °F 51% 30.19 in 10.0 mi North - - N/A   Clear
9:55 AM 1.4 °F - -13.0 °F 51% 30.19 in 10.0 mi North - - N/A   Clear
10:15 AM 3.2 °F - -11.2 °F 51% 30.19 in 10.0 mi North - - N/A   Clear
10:35 AM 5.0 °F - -9.4 °F 52% 30.17 in 10.0 mi North - - N/A   Scattered Clouds
10:55 AM 5.0 °F - -9.4 °F 52% 30.17 in 10.0 mi North - - N/A   Scattered Clouds
11:15 AM 6.8 °F - -7.6 °F 52% 30.15 in 10.0 mi North - - N/A   Scattered Clouds
11:35 AM 6.8 °F - -7.6 °F 52% 30.13 in 10.0 mi North - - N/A   Overcast
11:55 AM 8.6 °F -8.3 °F -5.8 °F 52% 30.12 in 10.0 mi SSW 15.0 mph - N/A   Scattered Clouds
12:15 PM 10.4 °F -6.0 °F -4.0 °F 52% 30.11 in 10.0 mi SW 15.0 mph - N/A   Scattered Clouds
12:35 PM 10.4 °F -6.0 °F -4.0 °F 52% 30.10 in 10.0 mi SW 15.0 mph - N/A   Mostly Cloudy
12:55 PM 12.2 °F -3.7 °F -4.0 °F 48% 30.09 in 10.0 mi SW 15.0 mph 24.2 mph N/A   Mostly Cloudy
1:15 PM 12.2 °F -3.7 °F -4.0 °F 48% 30.08 in 10.0 mi SW 15.0 mph - N/A   Mostly Cloudy
1:35 PM 14.0 °F -1.4 °F -2.2 °F 49% 30.07 in 10.0 mi SW 15.0 mph - N/A   Overcast
1:55 PM 14.0 °F -2.5 °F -2.2 °F 49% 30.07 in 10.0 mi SW 17.3 mph 20.7 mph N/A   Overcast
2:15 PM 14.0 °F -0.8 °F -0.4 °F 53% 30.06 in 10.0 mi SW 13.8 mph - N/A   Overcast
2:35 PM 15.8 °F 1.4 °F 1.4 °F 53% 30.06 in 10.0 mi SW 13.8 mph - N/A   Overcast
2:55 PM 17.6 °F 3.7 °F 1.4 °F 49% 30.05 in 10.0 mi SSW 13.8 mph 18.4 mph N/A   Overcast
3:15 PM 17.6 °F 3.7 °F 3.2 °F 53% 30.04 in 10.0 mi SSW 13.8 mph 18.4 mph N/A   Overcast
3:35 PM 17.6 °F 3.7 °F 3.2 °F 53% 30.03 in 10.0 mi SW 13.8 mph - N/A   Overcast
3:55 PM 19.4 °F 7.9 °F 3.2 °F 49% 30.03 in 10.0 mi SSW 10.4 mph - N/A   Overcast
4:15 PM 19.4 °F 10.4 °F 5.0 °F 54% 30.03 in 10.0 mi SW 6.9 mph - N/A   Overcast
4:35 PM 19.4 °F 6.0 °F 5.0 °F 54% 30.02 in 10.0 mi SSW 13.8 mph - N/A   Overcast
4:55 PM 21.2 °F 8.9 °F 6.8 °F 54% 30.00 in 10.0 mi SSW 12.7 mph - N/A   Overcast
5:15 PM 21.2 °F 8.3 °F 8.6 °F 58% 29.99 in 10.0 mi SSW 13.8 mph - N/A   Overcast
5:35 PM 23.0 °F 11.1 °F 8.6 °F 54% 29.98 in 10.0 mi SW 12.7 mph - N/A   Overcast
5:55 PM 23.0 °F 12.4 °F 8.6 °F 54% 29.97 in 10.0 mi SW 10.4 mph - N/A   Overcast
6:15 PM 23.0 °F 11.1 °F 8.6 °F 54% 29.97 in 10.0 mi SW 12.7 mph - N/A   Overcast
6:35 PM 23.0 °F 11.1 °F 8.6 °F 54% 29.96 in 10.0 mi SW 12.7 mph - N/A   Overcast
6:55 PM 24.8 °F 13.4 °F 10.4 °F 54% 29.95 in 10.0 mi SW 12.7 mph - N/A   Overcast
7:15 PM 24.8 °F 12.9 °F 10.4 °F 54% 29.96 in 10.0 mi SW 13.8 mph 21.9 mph N/A   Overcast
7:35 PM 26.6 °F 13.8 °F 10.4 °F 51% 29.94 in 10.0 mi SW 17.3 mph - N/A   Overcast
7:55 PM 26.6 °F 14.7 °F 10.4 °F 51% 29.94 in 10.0 mi SW 15.0 mph 21.9 mph N/A   Overcast
8:15 PM 28.4 °F 17.0 °F 10.4 °F 47% 29.93 in 10.0 mi SW 15.0 mph - N/A   Overcast
8:35 PM 28.4 °F 16.6 °F 10.4 °F 47% 29.93 in 10.0 mi SW 16.1 mph - N/A   Mostly Cloudy
8:55 PM 28.4 °F 16.6 °F 12.2 °F 51% 29.93 in 10.0 mi SW 16.1 mph - N/A   Mostly Cloudy
9:15 PM 30.2 °F 19.8 °F 12.2 °F 47% 29.93 in 10.0 mi SW 13.8 mph 19.6 mph N/A   Overcast
9:35 PM 30.2 °F 19.8 °F 12.2 °F 47% 29.92 in 10.0 mi SW 13.8 mph 21.9 mph N/A   Overcast
9:55 PM 30.2 °F 20.2 °F 12.2 °F 47% 29.92 in 10.0 mi SW 12.7 mph - N/A   Overcast
10:15 PM 30.2 °F 20.2 °F 12.2 °F 47% 29.92 in 10.0 mi SW 12.7 mph - N/A   Overcast
10:35 PM 30.2 °F 19.8 °F 12.2 °F 47% 29.90 in 10.0 mi SW 13.8 mph - N/A   Overcast
10:55 PM 30.2 °F 19.3 °F 12.2 °F 47% 29.90 in 10.0 mi SW 15.0 mph - N/A   Overcast
11:15 PM 30.2 °F 19.8 °F 14.0 °F 51% 29.90 in 10.0 mi SW 13.8 mph - N/A   Overcast
11:35 PM 30.2 °F 20.8 °F 12.2 °F 47% 29.90 in 10.0 mi SW 11.5 mph 17.3 mph N/A   Overcast
11:55 PM 30.2 °F 21.3 °F 14.0 °F 51% 29.90 in 10.0 mi SW 10.4 mph - N/A   Overcast